Location: Canyon City
(32.5951°N, 116.5278°W)
Time: 01:27:03
(UTC+00:00)

CBERS-1 - Pass Details

Date: 08 September 2024
Orbit: 766 x 774 km, 98.8° (Epoch: 10 October)

Event Time Altitude Azimuth Distance (km) Brightness Sun altitude
Rises 12:33:38 0° 10° (N) 3,238 7.6 -11.6°
Reaches altitude 10° 12:35:57 10° 9° (N) 2,308 6.8 -11.2°
Maximum altitude 12:41:01 73° 285° (WNW) 801 4.0 -10.1°
Drops below altitude 10° 12:46:03 10° 201° (SSW) 2,298 6.2 -9.1°
Sets 12:48:21 0° 199° (SSW) 3,221 6.9 -8.6°
